Time,TemperatureF,DewpointF,PressureIn,WindDirection,WindDirectionDegrees,WindSpeedMPH,WindSpeedGustMPH,Humidity,HourlyPrecipIn,Conditions,Clouds,dailyrainin,SoftwareType,DateUTC
2013-08-22 00:00:00,80.8,76.2,29.96,ESE,119,0.0,0.0,86,0.00,,---,0.00,VWS V14.01,2013-08-22 05:00:00,
2013-08-22 00:01:00,80.7,76.1,29.96,ESE,119,0.0,0.0,86,0.00,,---,0.00,VWS V14.01,2013-08-22 05:01:00,
2013-08-22 00:02:00,80.8,76.2,29.96,ESE,119,0.0,0.0,86,0.00,,---,0.00,VWS V14.01,2013-08-22 05:02:00,
2013-08-22 00:03:00,80.8,76.2,29.96,ESE,119,0.0,0.0,86,0.00,,---,0.00,VWS V14.01,2013-08-22 05:03:00,
2013-08-22 00:05:00,80.8,76.2,29.96,ESE,118,0.0,0.0,86,0.00,,---,0.00,VWS V14.01,2013-08-22 05:05:00,
2013-08-22 00:06:00,80.8,76.2,29.96,ESE,118,0.0,0.0,86,0.00,,---,0.00,VWS V14.01,2013-08-22 05:06:00,
2013-08-22 00:07:00,80.8,76.2,29.96,ESE,118,0.0,0.0,86,0.00,,---,0.00,VWS V14.01,2013-08-22 05:07:00,
2013-08-22 00:08:00,80.8,76.2,29.96,ESE,119,2.0,2.0,86,0.00,,---,0.00,VWS V14.01,2013-08-22 05:08:00,
2013-08-22 00:10:00,80.8,76.2,29.96,ESE,119,0.0,2.0,86,0.00,,---,0.00,VWS V14.01,2013-08-22 05:10:00,
2013-08-22 00:11:00,80.8,76.2,29.96,ESE,119,2.0,3.0,86,0.00,,---,0.00,VWS V14.01,2013-08-22 05:11:00,
2013-08-22 00:12:00,80.9,76.3,29.97,ESE,119,0.0,2.0,86,0.00,,---,0.00,VWS V14.01,2013-08-22 05:12:00,
2013-08-22 00:13:00,80.9,76.3,29.97,ESE,118,1.0,2.0,86,0.00,,---,0.00,VWS V14.01,2013-08-22 05:13:00,
2013-08-22 00:14:00,80.9,76.3,29.97,ESE,119,1.0,2.0,86,0.00,,---,0.00,VWS V14.01,2013-08-22 05:14:00,
2013-08-22 00:15:00,80.9,76.3,29.97,ESE,119,1.0,2.0,86,0.00,,---,0.00,VWS V14.01,2013-08-22 05:15:00,
2013-08-22 00:17:00,81.0,76.4,29.97,ESE,119,2.0,2.0,86,0.00,,---,0.00,VWS V14.01,2013-08-22 05:17:00,
2013-08-22 00:18:00,81.0,76.4,29.97,ESE,119,3.0,4.0,86,0.00,,---,0.00,VWS V14.01,2013-08-22 05:18:00,
2013-08-22 00:19:00,81.0,76.4,29.97,ESE,118,2.0,4.0,86,0.00,,---,0.00,VWS V14.01,2013-08-22 05:19:00,
2013-08-22 00:20:00,81.0,76.4,29.97,ESE,119,3.0,4.0,86,0.00,,---,0.00,VWS V14.01,2013-08-22 05:20:00,
2013-08-22 00:21:00,81.1,76.5,29.97,ESE,115,1.0,4.0,86,0.00,,---,0.00,VWS V14.01,2013-08-22 05:21:00,
2013-08-22 00:23:00,81.1,76.5,29.96,ESE,108,0.0,4.0,86,0.00,,---,0.00,VWS V14.01,2013-08-22 05:23:00,
2013-08-22 00:24:00,81.1,76.5,29.97,ESE,108,1.0,3.0,86,0.00,,---,0.00,VWS V14.01,2013-08-22 05:24:00,
2013-08-22 00:25:00,81.1,76.5,29.97,ESE,108,3.0,3.0,86,0.00,,---,0.00,VWS V14.01,2013-08-22 05:25:00,
2013-08-22 00:26:00,81.1,76.5,29.97,ESE,107,1.0,3.0,86,0.00,,---,0.00,VWS V14.01,2013-08-22 05:26:00,
2013-08-22 00:27:00,81.1,76.5,29.97,ESE,107,3.0,3.0,86,0.00,,---,0.00,VWS V14.01,2013-08-22 05:27:00,
2013-08-22 00:28:00,81.1,76.5,29.97,ESE,108,0.0,3.0,86,0.00,,---,0.00,VWS V14.01,2013-08-22 05:28:00,
2013-08-22 00:29:00,81.1,76.5,29.97,ESE,108,2.0,3.0,86,0.00,,---,0.00,VWS V14.01,2013-08-22 05:29:00,
2013-08-22 00:30:00,81.1,76.5,29.97,ESE,107,2.0,3.0,86,0.00,,---,0.00,VWS V14.01,2013-08-22 05:30:00,
2013-08-22 00:32:00,81.1,76.5,29.97,ESE,107,2.0,3.0,86,0.00,,---,0.00,VWS V14.01,2013-08-22 05:32:00,
2013-08-22 00:35:00,81.1,76.5,29.97,ESE,107,0.0,2.0,86,0.00,,---,0.00,VWS V14.01,2013-08-22 05:35:00,
2013-08-22 00:40:00,81.1,76.5,29.97,ESE,108,0.0,3.0,86,0.00,,---,0.00,VWS V14.01,2013-08-22 05:40:00,
2013-08-22 00:45:00,81.1,76.5,29.97,ESE,108,0.0,0.0,86,0.00,,---,0.00,VWS V14.01,2013-08-22 05:45:00,
2013-08-22 00:50:00,81.1,76.5,29.97,ESE,107,0.0,0.0,86,0.00,,---,0.00,VWS V14.01,2013-08-22 05:50:00,
2013-08-22 00:55:00,81.0,76.4,29.97,ESE,108,0.0,0.0,86,0.00,,---,0.00,VWS V14.01,2013-08-22 05:55:00,
2013-08-22 01:00:00,80.9,76.3,29.96,ESE,107,0.0,0.0,86,0.00,,---,0.00,VWS V14.01,2013-08-22 06:00:00,
2013-08-22 01:05:00,80.8,76.6,29.96,ESE,107,0.0,0.0,87,0.00,,---,0.00,VWS V14.01,2013-08-22 06:05:00,
2013-08-22 01:10:00,80.7,76.5,29.96,ESE,108,0.0,0.0,87,0.00,,---,0.00,VWS V14.01,2013-08-22 06:10:00,
2013-08-22 01:15:00,80.6,76.4,29.96,ESE,108,0.0,0.0,87,0.00,,---,0.00,VWS V14.01,2013-08-22 06:15:00,
2013-08-22 01:20:00,80.6,76.4,29.96,ESE,108,0.0,0.0,87,0.00,,---,0.00,VWS V14.01,2013-08-22 06:20:00,
2013-08-22 01:25:00,80.7,76.8,29.96,ESE,107,1.0,3.0,88,0.00,,---,0.00,VWS V14.01,2013-08-22 06:25:00,
2013-08-22 01:30:00,80.8,76.9,29.96,ESE,107,0.0,0.0,88,0.00,,---,0.00,VWS V14.01,2013-08-22 06:30:00,
2013-08-22 01:35:00,80.8,76.9,29.96,ESE,110,1.0,2.0,88,0.00,,---,0.00,VWS V14.01,2013-08-22 06:35:00,
2013-08-22 01:40:00,80.8,76.9,29.96,ESE,111,0.0,0.0,88,0.00,,---,0.00,VWS V14.01,2013-08-22 06:40:00,
2013-08-22 01:45:00,80.8,76.9,29.96,ESE,111,0.0,0.0,88,0.00,,---,0.00,VWS V14.01,2013-08-22 06:45:00,
2013-08-22 01:50:00,80.8,76.6,29.96,ESE,110,0.0,0.0,87,0.00,,---,0.00,VWS V14.01,2013-08-22 06:50:00,
2013-08-22 01:55:00,80.7,76.5,29.96,ESE,110,0.0,0.0,87,0.00,,---,0.00,VWS V14.01,2013-08-22 06:55:00,
2013-08-22 02:00:00,80.7,76.8,29.96,ESE,111,0.0,0.0,88,0.00,,---,0.00,VWS V14.01,2013-08-22 07:00:00,
2013-08-22 02:05:00,80.6,76.7,29.95,ESE,112,0.0,0.0,88,0.00,,---,0.00,VWS V14.01,2013-08-22 07:05:00,
2013-08-22 02:10:00,80.5,76.6,29.95,ESE,112,0.0,0.0,88,0.00,,---,0.00,VWS V14.01,2013-08-22 07:10:00,
2013-08-22 02:15:00,80.3,76.4,29.96,ESE,111,0.0,0.0,88,0.00,,---,0.00,VWS V14.01,2013-08-22 07:15:00,
2013-08-22 02:20:00,80.3,76.4,29.96,ESE,111,0.0,0.0,88,0.00,,---,0.00,VWS V14.01,2013-08-22 07:20:00,
2013-08-22 02:25:00,80.2,76.3,29.96,ESE,111,0.0,0.0,88,0.00,,---,0.00,VWS V14.01,2013-08-22 07:25:00,
2013-08-22 02:30:00,80.0,76.1,29.96,ESE,112,0.0,0.0,88,0.00,,---,0.00,VWS V14.01,2013-08-22 07:30:00,
2013-08-22 02:35:00,79.7,75.5,29.96,ESE,112,0.0,0.0,87,0.00,,---,0.00,VWS V14.01,2013-08-22 07:35:00,
2013-08-22 02:40:00,79.4,75.2,29.96,ESE,112,0.0,0.0,87,0.00,,---,0.00,VWS V14.01,2013-08-22 07:40:00,
2013-08-22 02:45:00,79.2,75.3,29.96,ESE,111,0.0,0.0,88,0.00,,---,0.00,VWS V14.01,2013-08-22 07:45:00,
2013-08-22 02:50:00,79.1,75.2,29.96,ESE,112,0.0,0.0,88,0.00,,---,0.00,VWS V14.01,2013-08-22 07:50:00,
2013-08-22 02:55:00,78.9,75.1,29.96,ESE,111,0.0,0.0,88,0.00,,---,0.00,VWS V14.01,2013-08-22 07:55:00,
2013-08-22 03:00:00,78.8,74.9,29.96,ESE,112,0.0,0.0,88,0.00,,---,0.00,VWS V14.01,2013-08-22 08:00:00,
2013-08-22 03:05:00,78.4,74.6,29.95,ESE,112,0.0,0.0,88,0.00,,---,0.00,VWS V14.01,2013-08-22 08:05:00,
2013-08-22 03:10:00,78.2,74.4,29.95,ESE,111,0.0,0.0,88,0.00,,---,0.00,VWS V14.01,2013-08-22 08:10:00,
2013-08-22 03:15:00,77.9,74.1,29.95,ESE,111,0.0,0.0,88,0.00,,---,0.00,VWS V14.01,2013-08-22 08:15:00,
2013-08-22 03:20:00,77.7,74.2,29.95,ESE,112,0.0,0.0,89,0.00,,---,0.00,VWS V14.01,2013-08-22 08:20:00,
2013-08-22 03:25:00,77.4,73.9,29.95,ESE,111,0.0,0.0,89,0.00,,---,0.00,VWS V14.01,2013-08-22 08:25:00,
2013-08-22 03:30:00,77.2,73.7,29.95,ESE,112,0.0,0.0,89,0.00,,---,0.00,VWS V14.01,2013-08-22 08:30:00,
2013-08-22 03:35:00,77.0,73.5,29.95,ESE,112,0.0,0.0,89,0.00,,---,0.00,VWS V14.01,2013-08-22 08:35:00,
2013-08-22 03:40:00,76.9,73.4,29.95,ESE,112,0.0,0.0,89,0.00,,---,0.00,VWS V14.01,2013-08-22 08:40:00,
2013-08-22 03:45:00,76.8,73.7,29.95,ESE,111,0.0,0.0,90,0.00,,---,0.00,VWS V14.01,2013-08-22 08:45:00,
2013-08-22 03:50:00,76.9,73.8,29.95,ESE,111,0.0,0.0,90,0.00,,---,0.00,VWS V14.01,2013-08-22 08:50:00,
2013-08-22 03:55:00,76.9,73.8,29.95,ESE,112,0.0,0.0,90,0.00,,---,0.00,VWS V14.01,2013-08-22 08:55:00,
2013-08-22 04:00:00,77.1,73.9,29.95,ESE,112,0.0,0.0,90,0.00,,---,0.00,VWS V14.01,2013-08-22 09:00:00,
2013-08-22 04:05:00,77.1,73.9,29.95,ESE,112,0.0,0.0,90,0.00,,---,0.00,VWS V14.01,2013-08-22 09:05:00,
2013-08-22 04:10:00,77.0,73.8,29.95,ESE,112,0.0,0.0,90,0.00,,---,0.00,VWS V14.01,2013-08-22 09:10:00,
2013-08-22 04:15:00,77.0,73.8,29.95,ESE,111,0.0,0.0,90,0.00,,---,0.00,VWS V14.01,2013-08-22 09:15:00,
2013-08-22 04:20:00,76.8,73.7,29.94,ESE,111,0.0,0.0,90,0.00,,---,0.00,VWS V14.01,2013-08-22 09:20:00,
2013-08-22 04:25:00,76.7,73.6,29.94,ESE,112,0.0,0.0,90,0.00,,---,0.00,VWS V14.01,2013-08-22 09:25:00,
2013-08-22 04:30:00,76.6,73.8,29.94,ESE,112,0.0,0.0,91,0.00,,---,0.00,VWS V14.01,2013-08-22 09:30:00,
2013-08-22 04:35:00,76.4,73.6,29.94,ESE,111,0.0,0.0,91,0.00,,---,0.00,VWS V14.01,2013-08-22 09:35:00,
2013-08-22 04:40:00,76.2,73.1,29.94,ESE,112,0.0,0.0,90,0.00,,---,0.00,VWS V14.01,2013-08-22 09:40:00,
2013-08-22 04:45:00,76.0,72.9,29.94,ESE,111,0.0,0.0,90,0.00,,---,0.00,VWS V14.01,2013-08-22 09:45:00,
2013-08-22 04:50:00,75.8,73.0,29.94,ESE,112,0.0,0.0,91,0.00,,---,0.00,VWS V14.01,2013-08-22 09:50:00,
2013-08-22 04:55:00,75.6,72.8,29.94,ESE,112,0.0,0.0,91,0.00,,---,0.00,VWS V14.01,2013-08-22 09:55:00,
2013-08-22 05:00:00,75.5,72.7,29.94,ESE,111,0.0,0.0,91,0.00,,---,0.00,VWS V14.01,2013-08-22 10:00:00,
2013-08-22 05:05:00,75.4,72.6,29.95,ESE,111,0.0,0.0,91,0.00,,---,0.00,VWS V14.01,2013-08-22 10:05:00,
2013-08-22 05:10:00,75.5,72.7,29.95,ESE,112,0.0,0.0,91,0.00,,---,0.00,VWS V14.01,2013-08-22 10:10:00,
2013-08-22 05:15:00,75.7,73.2,29.95,ESE,111,0.0,0.0,92,0.00,,---,0.00,VWS V14.01,2013-08-22 10:15:00,
2013-08-22 05:20:00,75.8,73.3,29.95,ESE,112,0.0,0.0,92,0.00,,---,0.00,VWS V14.01,2013-08-22 10:20:00,
2013-08-22 05:25:00,75.8,73.3,29.95,ESE,112,0.0,0.0,92,0.00,,---,0.00,VWS V14.01,2013-08-22 10:25:00,
2013-08-22 05:30:00,76.0,73.5,29.95,ESE,111,0.0,0.0,92,0.00,,---,0.00,VWS V14.01,2013-08-22 10:30:00,
2013-08-22 05:34:00,76.2,73.7,29.95,ESE,112,0.0,0.0,92,0.00,,---,0.00,VWS V14.01,2013-08-22 10:34:00,
2013-08-22 05:39:00,76.3,73.8,29.96,ESE,112,0.0,0.0,92,0.00,,---,0.00,VWS V14.01,2013-08-22 10:39:00,
2013-08-22 05:44:00,76.5,74.0,29.96,ESE,112,0.0,0.0,92,0.00,,---,0.00,VWS V14.01,2013-08-22 10:44:00,
2013-08-22 05:49:00,76.6,74.1,29.96,ESE,111,0.0,0.0,92,0.00,,---,0.00,VWS V14.01,2013-08-22 10:49:00,
2013-08-22 06:30:00,76.9,74.4,29.96,ESE,112,0.0,0.0,92,0.00,,---,0.00,VWS V14.01,2013-08-22 11:30:00,
2013-08-22 06:31:00,76.9,74.4,29.96,ESE,111,0.0,0.0,92,0.00,,---,0.00,VWS V14.01,2013-08-22 11:31:00,
2013-08-22 06:32:00,76.9,74.4,29.96,ESE,112,0.0,0.0,92,0.00,,---,0.00,VWS V14.01,2013-08-22 11:32:00,
2013-08-22 06:33:00,76.9,74.4,29.96,ESE,112,0.0,0.0,92,0.00,,---,0.00,VWS V14.01,2013-08-22 11:33:00,
2013-08-22 06:34:00,76.9,74.4,29.96,ESE,112,0.0,0.0,92,0.00,,---,0.00,VWS V14.01,2013-08-22 11:34:00,
2013-08-22 06:35:00,77.0,74.5,29.96,ESE,112,0.0,0.0,92,0.00,,---,0.00,VWS V14.01,2013-08-22 11:35:00,
2013-08-22 06:36:00,77.0,74.5,29.96,ESE,112,0.0,0.0,92,0.00,,---,0.00,VWS V14.01,2013-08-22 11:36:00,
2013-08-22 06:37:00,77.0,74.5,29.96,ESE,111,0.0,0.0,92,0.00,,---,0.00,VWS V14.01,2013-08-22 11:37:00,
2013-08-22 06:38:00,77.0,74.5,29.96,ESE,112,0.0,0.0,92,0.00,,---,0.00,VWS V14.01,2013-08-22 11:38:00,
2013-08-22 06:39:00,77.0,74.5,29.96,ESE,112,0.0,0.0,92,0.00,,---,0.00,VWS V14.01,2013-08-22 11:39:00,
2013-08-22 06:40:00,77.0,74.5,29.96,ESE,112,0.0,0.0,92,0.00,,---,0.00,VWS V14.01,2013-08-22 11:40:00,
2013-08-22 06:41:00,77.0,74.5,29.96,ESE,111,0.0,0.0,92,0.00,,---,0.00,VWS V14.01,2013-08-22 11:41:00,
2013-08-22 06:42:00,77.0,74.5,29.96,ESE,111,0.0,0.0,92,0.00,,---,0.00,VWS V14.01,2013-08-22 11:42:00,
2013-08-22 06:43:00,77.1,74.6,29.96,ESE,111,0.0,0.0,92,0.00,,---,0.00,VWS V14.01,2013-08-22 11:43:00,
2013-08-22 06:44:00,77.1,74.6,29.96,ESE,112,0.0,0.0,92,0.00,,---,0.00,VWS V14.01,2013-08-22 11:44:00,
2013-08-22 06:45:00,77.1,74.6,29.96,ESE,107,0.0,0.0,92,0.00,,---,0.00,VWS V14.01,2013-08-22 11:45:00,
2013-08-22 06:46:00,77.2,74.7,29.96,ESE,107,0.0,0.0,92,0.00,,---,0.00,VWS V14.01,2013-08-22 11:46:00,
2013-08-22 06:47:00,77.2,74.7,29.96,ESE,107,0.0,0.0,92,0.00,,---,0.00,VWS V14.01,2013-08-22 11:47:00,
2013-08-22 06:48:00,77.2,74.7,29.96,ESE,107,0.0,0.0,92,0.00,,---,0.00,VWS V14.01,2013-08-22 11:48:00,
2013-08-22 06:49:00,77.3,74.8,29.96,ESE,107,0.0,0.0,92,0.00,,---,0.00,VWS V14.01,2013-08-22 11:49:00,
2013-08-22 06:50:00,77.3,74.8,29.96,ESE,107,0.0,0.0,92,0.00,,---,0.00,VWS V14.01,2013-08-22 11:50:00,
2013-08-22 06:51:00,77.3,74.8,29.96,ESE,107,0.0,0.0,92,0.00,,---,0.00,VWS V14.01,2013-08-22 11:51:00,
2013-08-22 06:52:00,77.3,74.8,29.96,ESE,107,0.0,0.0,92,0.00,,---,0.00,VWS V14.01,2013-08-22 11:52:00,
2013-08-22 06:53:00,77.3,74.8,29.96,ESE,107,0.0,0.0,92,0.00,,---,0.00,VWS V14.01,2013-08-22 11:53:00,
2013-08-22 06:54:00,77.3,74.8,29.96,ESE,107,0.0,0.0,92,0.00,,---,0.00,VWS V14.01,2013-08-22 11:54:00,
2013-08-22 06:55:00,77.3,74.8,29.96,ESE,107,0.0,0.0,92,0.00,,---,0.00,VWS V14.01,2013-08-22 11:55:00,
2013-08-22 06:56:00,77.4,74.9,29.96,ESE,107,0.0,0.0,92,0.00,,---,0.00,VWS V14.01,2013-08-22 11:56:00,
2013-08-22 06:57:00,77.3,74.8,29.96,ESE,107,0.0,0.0,92,0.00,,---,0.00,VWS V14.01,2013-08-22 11:57:00,
2013-08-22 06:58:00,77.4,74.9,29.96,ESE,107,0.0,0.0,92,0.00,,---,0.00,VWS V14.01,2013-08-22 11:58:00,
2013-08-22 06:59:00,77.4,74.9,29.96,ESE,107,0.0,0.0,92,0.00,,---,0.00,VWS V14.01,2013-08-22 11:59:00,
2013-08-22 07:00:00,77.4,74.9,29.96,ESE,107,0.0,0.0,92,0.00,,---,0.00,VWS V14.01,2013-08-22 12:00:00,
2013-08-22 07:01:00,77.4,74.9,29.96,ESE,107,0.0,0.0,92,0.00,,---,0.00,VWS V14.01,2013-08-22 12:01:00,
2013-08-22 07:02:00,77.4,74.9,29.96,ESE,107,0.0,0.0,92,0.00,,---,0.00,VWS V14.01,2013-08-22 12:02:00,
2013-08-22 07:03:00,77.4,74.9,29.96,ESE,107,0.0,0.0,92,0.00,,---,0.00,VWS V14.01,2013-08-22 12:03:00,
2013-08-22 07:04:00,77.4,74.9,29.96,ESE,107,0.0,0.0,92,0.00,,---,0.00,VWS V14.01,2013-08-22 12:04:00,
2013-08-22 07:05:00,77.4,74.9,29.97,ESE,107,0.0,0.0,92,0.00,,---,0.00,VWS V14.01,2013-08-22 12:05:00,
2013-08-22 07:06:00,77.4,74.9,29.97,ESE,107,0.0,0.0,92,0.00,,---,0.00,VWS V14.01,2013-08-22 12:06:00,
2013-08-22 07:07:00,77.4,74.9,29.97,ESE,107,0.0,0.0,92,0.00,,---,0.00,VWS V14.01,2013-08-22 12:07:00,
2013-08-22 07:08:00,77.4,74.9,29.97,ESE,107,0.0,0.0,92,0.00,,---,0.00,VWS V14.01,2013-08-22 12:08:00,
2013-08-22 07:09:00,77.4,74.9,29.97,ESE,107,0.0,0.0,92,0.00,,---,0.00,VWS V14.01,2013-08-22 12:09:00,
2013-08-22 07:10:00,77.5,75.0,29.97,ESE,107,0.0,0.0,92,0.00,,---,0.00,VWS V14.01,2013-08-22 12:10:00,
2013-08-22 07:11:00,77.5,75.0,29.97,ESE,107,0.0,0.0,92,0.00,,---,0.00,VWS V14.01,2013-08-22 12:11:00,
2013-08-22 07:12:00,77.5,75.0,29.97,ESE,107,0.0,0.0,92,0.00,,---,0.00,VWS V14.01,2013-08-22 12:12:00,
2013-08-22 07:13:00,77.5,75.0,29.97,ESE,107,0.0,0.0,92,0.00,,---,0.00,VWS V14.01,2013-08-22 12:13:00,
2013-08-22 07:14:00,77.4,74.9,29.97,ESE,107,0.0,0.0,92,0.00,,---,0.00,VWS V14.01,2013-08-22 12:14:00,
2013-08-22 07:15:00,77.5,75.0,29.97,ESE,107,0.0,0.0,92,0.00,,---,0.00,VWS V14.01,2013-08-22 12:15:00,
2013-08-22 07:16:00,77.4,74.9,29.97,ESE,107,0.0,0.0,92,0.00,,---,0.00,VWS V14.01,2013-08-22 12:16:00,
2013-08-22 07:17:00,77.5,75.0,29.97,ESE,107,0.0,0.0,92,0.00,,---,0.00,VWS V14.01,2013-08-22 12:17:00,
2013-08-22 07:18:00,77.5,75.0,29.97,ESE,107,0.0,0.0,92,0.00,,---,0.00,VWS V14.01,2013-08-22 12:18:00,
2013-08-22 07:19:00,77.5,75.0,29.97,ESE,107,0.0,0.0,92,0.00,,---,0.00,VWS V14.01,2013-08-22 12:19:00,
2013-08-22 07:27:00,77.5,75.0,29.97,ESE,107,0.0,0.0,92,0.00,,---,0.00,VWS V14.01,2013-08-22 12:27:00,
2013-08-22 07:32:00,77.5,75.0,29.97,ESE,107,0.0,0.0,92,0.00,,---,0.00,VWS V14.01,2013-08-22 12:32:00,
2013-08-22 07:37:00,77.6,75.1,29.97,ESE,107,0.0,0.0,92,0.00,,---,0.00,VWS V14.01,2013-08-22 12:37:00,
2013-08-22 07:42:00,77.8,75.3,29.98,ESE,107,0.0,0.0,92,0.00,,---,0.00,VWS V14.01,2013-08-22 12:42:00,
2013-08-22 07:47:00,77.9,75.4,29.98,ESE,107,0.0,0.0,92,0.00,,---,0.00,VWS V14.01,2013-08-22 12:47:00,
2013-08-22 07:52:00,78.1,75.6,29.98,ESE,107,0.0,0.0,92,0.00,,---,0.00,VWS V14.01,2013-08-22 12:52:00,
2013-08-22 07:57:00,78.3,75.8,29.98,ESE,107,0.0,0.0,92,0.00,,---,0.00,VWS V14.01,2013-08-22 12:57:00,
2013-08-22 08:00:00,78.5,76.0,29.98,ESE,107,0.0,0.0,92,0.00,,---,0.00,VWS V14.01,2013-08-22 13:00:00,
2013-08-22 08:05:00,78.7,76.2,29.98,ESE,107,0.0,0.0,92,0.00,,---,0.00,VWS V14.01,2013-08-22 13:05:00,
2013-08-22 08:10:00,79.0,76.5,29.99,ESE,104,0.0,0.0,92,0.00,,---,0.00,VWS V14.01,2013-08-22 13:10:00,
2013-08-22 08:15:00,79.3,76.8,29.99,SW,217,0.0,0.0,92,0.00,,---,0.00,VWS V14.01,2013-08-22 13:15:00,
2013-08-22 08:20:00,79.7,77.2,29.99,SW,217,0.0,0.0,92,0.00,,---,0.00,VWS V14.01,2013-08-22 13:20:00,
2013-08-22 08:25:00,79.9,77.4,29.99,NNE,30,1.0,1.0,92,0.00,,---,0.00,VWS V14.01,2013-08-22 13:25:00,
2013-08-22 08:30:00,80.4,77.9,29.99,North,360,1.0,1.0,92,0.00,,---,0.00,VWS V14.01,2013-08-22 13:30:00,
2013-08-22 08:35:00,80.8,77.9,29.99,North,360,0.0,0.0,91,0.00,,---,0.00,VWS V14.01,2013-08-22 13:35:00,
2013-08-22 08:40:00,81.2,78.3,29.99,North,360,0.0,0.0,91,0.00,,---,0.00,VWS V14.01,2013-08-22 13:40:00,
2013-08-22 08:45:00,81.4,78.2,29.99,NNW,340,1.0,1.0,90,0.00,,---,0.00,VWS V14.01,2013-08-22 13:45:00,
2013-08-22 08:50:00,81.6,78.1,29.99,North,5,4.0,4.0,89,0.00,,---,0.00,VWS V14.01,2013-08-22 13:50:00,
2013-08-22 08:55:00,81.7,77.8,29.99,NE,34,7.0,7.0,88,0.00,,---,0.00,VWS V14.01,2013-08-22 13:55:00,
2013-08-22 09:00:00,81.8,77.6,29.99,NNE,20,6.0,7.0,87,0.00,,---,0.00,VWS V14.01,2013-08-22 14:00:00,
2013-08-22 09:05:00,81.8,77.2,29.99,NNE,25,1.0,3.0,86,0.00,,---,0.00,VWS V14.01,2013-08-22 14:05:00,
2013-08-22 09:10:00,81.8,76.8,29.99,North,11,3.0,4.0,85,0.00,,---,0.00,VWS V14.01,2013-08-22 14:10:00,
2013-08-22 09:15:00,82.0,76.7,30.00,NNE,21,7.0,7.0,84,0.00,,---,0.00,VWS V14.01,2013-08-22 14:15:00,
2013-08-22 09:20:00,82.3,77.0,30.00,NNE,25,4.0,6.0,84,0.00,,---,0.00,VWS V14.01,2013-08-22 14:20:00,
2013-08-22 09:25:00,82.5,76.8,30.00,NNE,21,6.0,6.0,83,0.00,,---,0.00,VWS V14.01,2013-08-22 14:25:00,
2013-08-22 09:30:00,82.7,76.7,30.00,NE,40,0.0,0.0,82,0.00,,---,0.00,VWS V14.01,2013-08-22 14:30:00,
2013-08-22 09:35:00,82.8,76.4,30.00,NNE,19,6.0,6.0,81,0.00,,---,0.00,VWS V14.01,2013-08-22 14:35:00,
2013-08-22 09:40:00,83.0,75.8,30.00,NNW,348,5.0,5.0,79,0.00,,---,0.00,VWS V14.01,2013-08-22 14:40:00,
2013-08-22 09:45:00,83.2,76.0,29.99,NE,44,2.0,4.0,79,0.00,,---,0.00,VWS V14.01,2013-08-22 14:45:00,
2013-08-22 09:50:00,83.7,76.5,29.99,NNE,25,2.0,6.0,79,0.00,,---,0.00,VWS V14.01,2013-08-22 14:50:00,
2013-08-22 09:55:00,84.2,76.6,29.99,NNE,25,1.0,5.0,78,0.00,,---,0.00,VWS V14.01,2013-08-22 14:55:00,
2013-08-22 10:00:00,84.7,77.1,30.00,NNE,17,6.0,6.0,78,0.00,,---,0.00,VWS V14.01,2013-08-22 15:00:00,
2013-08-22 10:05:00,85.0,77.4,30.00,NNE,26,2.0,6.0,78,0.00,,---,0.00,VWS V14.01,2013-08-22 15:05:00,
2013-08-22 10:10:00,85.2,77.6,30.00,NNE,32,2.0,6.0,78,0.00,,---,0.00,VWS V14.01,2013-08-22 15:10:00,
2013-08-22 10:15:00,85.4,77.4,30.00,NE,41,2.0,2.0,77,0.00,,---,0.00,VWS V14.01,2013-08-22 15:15:00,
2013-08-22 10:20:00,85.8,77.8,30.00,NE,49,2.0,3.0,77,0.00,,---,0.00,VWS V14.01,2013-08-22 15:20:00,
2013-08-22 10:25:00,86.3,77.4,30.00,ENE,72,3.0,4.0,75,0.00,,---,0.00,VWS V14.01,2013-08-22 15:25:00,
2013-08-22 10:30:00,86.6,77.3,30.00,NE,42,0.0,5.0,74,0.00,,---,0.00,VWS V14.01,2013-08-22 15:30:00,
2013-08-22 10:35:00,86.5,77.6,30.00,NNE,25,4.0,6.0,75,0.00,,---,0.00,VWS V14.01,2013-08-22 15:35:00,
2013-08-22 10:40:00,86.4,77.9,30.00,NE,52,0.0,3.0,76,0.00,,---,0.00,VWS V14.01,2013-08-22 15:40:00,
2013-08-22 10:45:00,86.1,77.7,30.00,NE,56,0.0,3.0,76,0.00,,---,0.00,VWS V14.01,2013-08-22 15:45:00,
2013-08-22 10:50:00,86.0,77.6,30.01,ENE,69,0.0,2.0,76,0.00,,---,0.00,VWS V14.01,2013-08-22 15:50:00,
2013-08-22 10:55:00,85.9,77.9,30.00,NNE,32,4.0,6.0,77,0.00,,---,0.00,VWS V14.01,2013-08-22 15:55:00,
2013-08-22 11:00:00,85.7,77.7,30.00,East,86,0.0,2.0,77,0.00,,---,0.00,VWS V14.01,2013-08-22 16:00:00,
2013-08-22 11:05:00,85.5,77.5,30.00,NNE,20,1.0,5.0,77,0.00,,---,0.00,VWS V14.01,2013-08-22 16:05:00,
2013-08-22 11:09:00,85.4,77.8,30.00,NNE,22,3.0,9.0,78,0.00,,---,0.00,VWS V14.01,2013-08-22 16:09:00,
2013-08-22 11:14:00,85.2,77.6,30.00,NE,35,0.0,4.0,78,0.00,,---,0.00,VWS V14.01,2013-08-22 16:14:00,
2013-08-22 11:19:00,85.1,77.1,30.00,NE,56,1.0,3.0,77,0.00,,---,0.00,VWS V14.01,2013-08-22 16:19:00,
2013-08-22 11:24:00,85.0,77.0,30.01,ENE,62,0.0,2.0,77,0.00,,---,0.00,VWS V14.01,2013-08-22 16:24:00,
2013-08-22 11:29:00,84.9,76.9,30.00,ENE,78,0.0,0.0,77,0.00,,---,0.00,VWS V14.01,2013-08-22 16:29:00,
2013-08-22 11:34:00,84.9,76.5,30.00,ENE,74,4.0,5.0,76,0.00,,---,0.00,VWS V14.01,2013-08-22 16:34:00,
2013-08-22 11:39:00,84.9,76.9,30.00,NE,46,4.0,4.0,77,0.00,,---,0.00,VWS V14.01,2013-08-22 16:39:00,
2013-08-22 11:44:00,85.0,76.6,30.00,NE,45,2.0,4.0,76,0.00,,---,0.00,VWS V14.01,2013-08-22 16:44:00,
2013-08-22 11:49:00,85.1,76.3,30.00,East,86,3.0,3.0,75,0.00,,---,0.00,VWS V14.01,2013-08-22 16:49:00,
2013-08-22 11:54:00,85.3,76.5,29.99,East,98,0.0,1.0,75,0.00,,---,0.00,VWS V14.01,2013-08-22 16:54:00,
2013-08-22 11:59:00,85.6,76.8,29.99,NE,48,0.0,3.0,75,0.00,,---,0.00,VWS V14.01,2013-08-22 16:59:00,
2013-08-22 12:04:00,85.9,76.7,29.99,ENE,74,1.0,1.0,74,0.00,,---,0.00,VWS V14.01,2013-08-22 17:04:00,
2013-08-22 12:09:00,86.2,76.9,29.99,ENE,75,3.0,5.0,74,0.00,,---,0.00,VWS V14.01,2013-08-22 17:09:00,
2013-08-22 12:14:00,86.5,76.8,29.99,ENE,76,1.0,2.0,73,0.00,,---,0.00,VWS V14.01,2013-08-22 17:14:00,
2013-08-22 12:19:00,86.7,77.0,29.99,NE,41,1.0,2.0,73,0.00,,---,0.00,VWS V14.01,2013-08-22 17:19:00,
2013-08-22 12:24:00,86.9,76.8,29.99,NNE,30,4.0,9.0,72,0.00,,---,0.00,VWS V14.01,2013-08-22 17:24:00,
2013-08-22 12:29:00,87.2,76.2,29.98,East,101,2.0,3.0,70,0.00,,---,0.00,VWS V14.01,2013-08-22 17:29:00,
2013-08-22 12:34:00,87.3,77.2,29.98,East,94,0.0,1.0,72,0.00,,---,0.00,VWS V14.01,2013-08-22 17:34:00,
2013-08-22 12:39:00,87.8,77.7,29.98,ENE,76,4.0,5.0,72,0.00,,---,0.00,VWS V14.01,2013-08-22 17:39:00,
2013-08-22 12:44:00,88.4,77.8,29.98,ENE,64,0.0,1.0,71,0.00,,---,0.00,VWS V14.01,2013-08-22 17:44:00,
2013-08-22 12:49:00,88.6,77.6,29.98,ENE,77,2.0,7.0,70,0.00,,---,0.00,VWS V14.01,2013-08-22 17:49:00,
2013-08-22 12:54:00,88.9,77.0,29.98,NNE,13,1.0,5.0,68,0.00,,---,0.00,VWS V14.01,2013-08-22 17:54:00,
2013-08-22 12:59:00,88.8,76.0,29.98,East,82,2.0,4.0,66,0.00,,---,0.00,VWS V14.01,2013-08-22 17:59:00,
2013-08-22 13:04:00,88.7,77.2,29.98,ENE,76,0.0,0.0,69,0.00,,---,0.00,VWS V14.01,2013-08-22 18:04:00,
2013-08-22 13:09:00,88.4,75.6,29.98,ESE,105,6.0,6.0,66,0.00,,---,0.00,VWS V14.01,2013-08-22 18:09:00,
2013-08-22 13:14:00,88.5,76.2,29.97,ESE,107,2.0,3.0,67,0.00,,---,0.00,VWS V14.01,2013-08-22 18:14:00,
2013-08-22 13:19:00,88.7,76.3,29.97,NNW,348,8.0,9.0,67,0.00,,---,0.00,VWS V14.01,2013-08-22 18:19:00,
2013-08-22 13:24:00,89.2,76.4,29.97,ENE,75,5.0,5.0,66,0.00,,---,0.00,VWS V14.01,2013-08-22 18:24:00,
2013-08-22 13:29:00,89.5,76.7,29.97,ENE,65,3.0,4.0,66,0.00,,---,0.00,VWS V14.01,2013-08-22 18:29:00,
2013-08-22 13:34:00,89.9,76.1,29.96,ENE,57,0.0,5.0,64,0.00,,---,0.00,VWS V14.01,2013-08-22 18:34:00,
2013-08-22 13:39:00,90.0,76.7,29.96,NW,320,3.0,3.0,65,0.00,,---,0.00,VWS V14.01,2013-08-22 18:39:00,
2013-08-22 13:44:00,90.1,76.3,29.96,ENE,65,2.0,7.0,64,0.00,,---,0.00,VWS V14.01,2013-08-22 18:44:00,
2013-08-22 13:49:00,90.5,76.2,29.96,East,98,0.0,0.0,63,0.00,,---,0.00,VWS V14.01,2013-08-22 18:49:00,
2013-08-22 13:54:00,90.9,76.1,29.96,East,88,2.0,7.0,62,0.00,,---,0.00,VWS V14.01,2013-08-22 18:54:00,
2013-08-22 13:59:00,91.0,75.7,29.96,ESE,105,4.0,5.0,61,0.00,,---,0.00,VWS V14.01,2013-08-22 18:59:00,
2013-08-22 14:04:00,90.6,75.8,29.96,ESE,113,0.0,0.0,62,0.00,,---,0.00,VWS V14.01,2013-08-22 19:04:00,
2013-08-22 14:09:00,91.0,76.7,29.96,ESE,105,5.0,5.0,63,0.00,,---,0.00,VWS V14.01,2013-08-22 19:09:00,
2013-08-22 14:14:00,91.2,76.4,29.95,East,83,1.0,1.0,62,0.00,,---,0.00,VWS V14.01,2013-08-22 19:14:00,
2013-08-22 14:19:00,91.5,75.2,29.95,ENE,67,2.0,5.0,59,0.00,,---,0.00,VWS V14.01,2013-08-22 19:19:00,
2013-08-22 14:24:00,92.0,76.1,29.94,ENE,71,5.0,6.0,60,0.00,,---,0.00,VWS V14.01,2013-08-22 19:24:00,
2013-08-22 14:29:00,90.9,74.6,29.94,ESE,114,5.0,7.0,59,0.00,,---,0.00,VWS V14.01,2013-08-22 19:29:00,
2013-08-22 14:34:00,90.8,75.5,29.94,East,86,5.0,6.0,61,0.00,,---,0.00,VWS V14.01,2013-08-22 19:34:00,
2013-08-22 14:39:00,91.1,75.8,29.94,ESE,106,4.0,4.0,61,0.00,,---,0.00,VWS V14.01,2013-08-22 19:39:00,
2013-08-22 14:44:00,91.7,76.8,29.93,ESE,110,5.0,6.0,62,0.00,,---,0.00,VWS V14.01,2013-08-22 19:44:00,
2013-08-22 14:49:00,91.9,75.5,29.93,ESE,109,7.0,7.0,59,0.00,,---,0.00,VWS V14.01,2013-08-22 19:49:00,
2013-08-22 14:54:00,91.1,75.3,29.93,ESE,112,5.0,5.0,60,0.00,,---,0.00,VWS V14.01,2013-08-22 19:54:00,
2013-08-22 14:59:00,90.7,75.9,29.93,East,96,3.0,3.0,62,0.00,,---,0.00,VWS V14.01,2013-08-22 19:59:00,
2013-08-22 15:04:00,91.0,76.7,29.92,ESE,110,6.0,9.0,63,0.00,,---,0.00,VWS V14.01,2013-08-22 20:04:00,
2013-08-22 15:09:00,91.3,76.9,29.93,East,93,11.0,11.0,63,0.00,,---,0.00,VWS V14.01,2013-08-22 20:09:00,
2013-08-22 15:14:00,91.0,76.2,29.92,East,80,4.0,10.0,62,0.00,,---,0.00,VWS V14.01,2013-08-22 20:14:00,
2013-08-22 15:19:00,91.5,78.1,29.92,ESE,105,2.0,5.0,65,0.00,,---,0.00,VWS V14.01,2013-08-22 20:19:00,
2013-08-22 15:24:00,92.2,77.8,29.92,NE,56,2.0,13.0,63,0.00,,---,0.00,VWS V14.01,2013-08-22 20:24:00,
2013-08-22 15:29:00,92.6,77.2,29.92,NE,55,7.0,10.0,61,0.00,,---,0.00,VWS V14.01,2013-08-22 20:29:00,
2013-08-22 15:34:00,92.0,76.6,29.92,East,88,5.0,6.0,61,0.00,,---,0.00,VWS V14.01,2013-08-22 20:34:00,
2013-08-22 15:39:00,91.1,76.3,29.91,ESE,113,10.0,10.0,62,0.00,,---,0.00,VWS V14.01,2013-08-22 20:39:00,
2013-08-22 15:44:00,91.3,76.0,29.91,East,101,7.0,7.0,61,0.00,,---,0.00,VWS V14.01,2013-08-22 20:44:00,
2013-08-22 15:49:00,91.5,76.7,29.91,ESE,106,5.0,6.0,62,0.00,,---,0.00,VWS V14.01,2013-08-22 20:49:00,
2013-08-22 15:54:00,91.0,75.7,29.90,East,101,5.0,9.0,61,0.00,,---,0.00,VWS V14.01,2013-08-22 20:54:00,
2013-08-22 15:59:00,90.4,75.6,29.90,East,80,5.0,11.0,62,0.00,,---,0.00,VWS V14.01,2013-08-22 20:59:00,
2013-08-22 16:04:00,90.3,75.5,29.90,ESE,112,2.0,11.0,62,0.00,,---,0.00,VWS V14.01,2013-08-22 21:04:00,
2013-08-22 16:09:00,90.3,75.5,29.90,East,101,7.0,7.0,62,0.00,,---,0.00,VWS V14.01,2013-08-22 21:09:00,
2013-08-22 16:14:00,90.5,75.7,29.90,East,79,2.0,7.0,62,0.00,,---,0.00,VWS V14.01,2013-08-22 21:14:00,
2013-08-22 16:19:00,90.8,76.0,29.90,ESE,105,4.0,10.0,62,0.00,,---,0.00,VWS V14.01,2013-08-22 21:19:00,
2013-08-22 16:24:00,90.6,75.8,29.90,ESE,119,6.0,8.0,62,0.00,,---,0.00,VWS V14.01,2013-08-22 21:24:00,
2013-08-22 16:28:00,90.7,75.4,29.90,ESE,115,9.0,9.0,61,0.00,,---,0.00,VWS V14.01,2013-08-22 21:28:00,
2013-08-22 16:33:00,90.5,75.7,29.90,ENE,73,1.0,10.0,62,0.00,,---,0.00,VWS V14.01,2013-08-22 21:33:00,
2013-08-22 16:38:00,89.9,75.6,29.90,East,81,5.0,7.0,63,0.00,,---,0.00,VWS V14.01,2013-08-22 21:38:00,
2013-08-22 16:43:00,89.4,75.2,29.89,ESE,107,11.0,13.0,63,0.00,,---,0.00,VWS V14.01,2013-08-22 21:43:00,
2013-08-22 16:48:00,88.9,76.1,29.89,ESE,114,7.0,9.0,66,0.00,,---,0.00,VWS V14.01,2013-08-22 21:48:00,
2013-08-22 16:53:00,88.4,75.1,29.89,East,95,3.0,7.0,65,0.00,,---,0.00,VWS V14.01,2013-08-22 21:53:00,
2013-08-22 16:58:00,88.5,75.7,29.89,ESE,120,7.0,10.0,66,0.00,,---,0.00,VWS V14.01,2013-08-22 21:58:00,
2013-08-22 17:03:00,88.7,75.9,29.89,ENE,73,3.0,6.0,66,0.00,,---,0.00,VWS V14.01,2013-08-22 22:03:00,
2013-08-22 17:08:00,89.2,75.0,29.89,East,94,5.0,9.0,63,0.00,,---,0.00,VWS V14.01,2013-08-22 22:08:00,
2013-08-22 17:13:00,89.0,75.2,29.89,ESE,115,5.0,7.0,64,0.00,,---,0.00,VWS V14.01,2013-08-22 22:13:00,
2013-08-22 17:18:00,88.3,75.5,29.89,East,99,5.0,6.0,66,0.00,,---,0.00,VWS V14.01,2013-08-22 22:18:00,
2013-08-22 17:23:00,88.2,75.9,29.89,East,96,9.0,9.0,67,0.00,,---,0.00,VWS V14.01,2013-08-22 22:23:00,
2013-08-22 17:28:00,88.1,76.2,29.89,East,101,9.0,9.0,68,0.00,,---,0.00,VWS V14.01,2013-08-22 22:28:00,
2013-08-22 17:33:00,87.7,76.3,29.89,ESE,113,5.0,9.0,69,0.00,,---,0.00,VWS V14.01,2013-08-22 22:33:00,
2013-08-22 17:38:00,87.6,76.2,29.89,ESE,121,10.0,13.0,69,0.00,,---,0.00,VWS V14.01,2013-08-22 22:38:00,
2013-08-22 17:43:00,87.5,75.6,29.89,ESE,122,11.0,14.0,68,0.00,,---,0.00,VWS V14.01,2013-08-22 22:43:00,
2013-08-22 17:48:00,87.2,75.4,29.89,ESE,103,12.0,12.0,68,0.00,,---,0.00,VWS V14.01,2013-08-22 22:48:00,
2013-08-22 17:53:00,87.0,75.6,29.89,East,98,9.0,11.0,69,0.00,,---,0.00,VWS V14.01,2013-08-22 22:53:00,
2013-08-22 17:58:00,86.5,75.1,29.89,ENE,59,6.0,10.0,69,0.00,,---,0.00,VWS V14.01,2013-08-22 22:58:00,
2013-08-22 18:03:00,86.1,75.2,29.89,ESE,121,7.0,10.0,70,0.00,,---,0.00,VWS V14.01,2013-08-22 23:03:00,
2013-08-22 18:08:00,85.9,75.4,29.89,ESE,107,8.0,10.0,71,0.00,,---,0.00,VWS V14.01,2013-08-22 23:08:00,
2013-08-22 18:13:00,85.6,75.1,29.89,East,96,7.0,9.0,71,0.00,,---,0.00,VWS V14.01,2013-08-22 23:13:00,
2013-08-22 18:18:00,85.6,75.5,29.89,ESE,103,5.0,9.0,72,0.00,,---,0.00,VWS V14.01,2013-08-22 23:18:00,
2013-08-22 18:23:00,85.5,75.9,29.89,ESE,114,9.0,9.0,73,0.00,,---,0.00,VWS V14.01,2013-08-22 23:23:00,
2013-08-22 18:28:00,85.5,75.9,29.89,ESE,103,4.0,6.0,73,0.00,,---,0.00,VWS V14.01,2013-08-22 23:28:00,
2013-08-22 18:33:00,85.3,75.7,29.88,East,98,4.0,8.0,73,0.00,,---,0.00,VWS V14.01,2013-08-22 23:33:00,
2013-08-22 18:38:00,85.2,76.0,29.88,East,98,6.0,10.0,74,0.00,,---,0.00,VWS V14.01,2013-08-22 23:38:00,
2013-08-22 18:43:00,85.0,75.8,29.88,ESE,102,9.0,11.0,74,0.00,,---,0.00,VWS V14.01,2013-08-22 23:43:00,
2013-08-22 18:48:00,84.7,75.5,29.88,ESE,103,5.0,6.0,74,0.00,,---,0.00,VWS V14.01,2013-08-22 23:48:00,
2013-08-22 18:53:00,84.7,75.9,29.88,ESE,111,4.0,5.0,75,0.00,,---,0.00,VWS V14.01,2013-08-22 23:53:00,
2013-08-22 18:58:00,84.7,75.9,29.88,ESE,103,10.0,10.0,75,0.00,,---,0.00,VWS V14.01,2013-08-22 23:58:00,
2013-08-22 19:03:00,84.6,76.2,29.89,ESE,107,6.0,9.0,76,0.00,,---,0.00,VWS V14.01,2013-08-23 00:03:00,
2013-08-22 19:08:00,84.6,76.2,29.89,ESE,114,10.0,10.0,76,0.00,,---,0.00,VWS V14.01,2013-08-23 00:08:00,
2013-08-22 19:13:00,84.5,76.5,29.89,SE,134,5.0,5.0,77,0.00,,---,0.00,VWS V14.01,2013-08-23 00:13:00,
2013-08-22 19:18:00,84.5,76.5,29.89,SE,134,9.0,9.0,77,0.00,,---,0.00,VWS V14.01,2013-08-23 00:18:00,
2013-08-22 19:23:00,84.4,76.4,29.89,SE,142,3.0,3.0,77,0.00,,---,0.00,VWS V14.01,2013-08-23 00:23:00,
2013-08-22 19:28:00,84.3,76.7,29.89,ESE,106,9.0,10.0,78,0.00,,---,0.00,VWS V14.01,2013-08-23 00:28:00,
2013-08-22 19:33:00,84.2,76.6,29.90,ESE,111,4.0,8.0,78,0.00,,---,0.00,VWS V14.01,2013-08-23 00:33:00,
2013-08-22 19:38:00,84.1,76.9,29.90,SE,130,3.0,3.0,79,0.00,,---,0.00,VWS V14.01,2013-08-23 00:38:00,
2013-08-22 19:43:00,84.0,76.8,29.90,East,101,6.0,6.0,79,0.00,,---,0.00,VWS V14.01,2013-08-23 00:43:00,
2013-08-22 19:48:00,83.8,77.0,29.90,SE,127,5.0,5.0,80,0.00,,---,0.00,VWS V14.01,2013-08-23 00:48:00,
2013-08-22 19:53:00,83.6,76.8,29.90,ESE,118,4.0,4.0,80,0.00,,---,0.00,VWS V14.01,2013-08-23 00:53:00,
2013-08-22 19:58:00,83.6,76.8,29.90,SE,125,3.0,5.0,80,0.00,,---,0.00,VWS V14.01,2013-08-23 00:58:00,
2013-08-22 20:03:00,83.5,76.7,29.90,ESE,106,4.0,6.0,80,0.00,,---,0.00,VWS V14.01,2013-08-23 01:03:00,
2013-08-22 20:08:00,83.4,76.6,29.91,ESE,111,3.0,4.0,80,0.00,,---,0.00,VWS V14.01,2013-08-23 01:08:00,
2013-08-22 20:13:00,83.3,76.5,29.91,SE,130,3.0,3.0,80,0.00,,---,0.00,VWS V14.01,2013-08-23 01:13:00,
2013-08-22 20:18:00,83.2,76.4,29.91,ESE,117,4.0,4.0,80,0.00,,---,0.00,VWS V14.01,2013-08-23 01:18:00,
2013-08-22 20:23:00,83.1,76.3,29.91,ESE,118,1.0,2.0,80,0.00,,---,0.00,VWS V14.01,2013-08-23 01:23:00,
2013-08-22 20:28:00,83.1,76.3,29.91,SE,128,5.0,6.0,80,0.00,,---,0.00,VWS V14.01,2013-08-23 01:28:00,
2013-08-22 20:33:00,83.0,76.6,29.91,ESE,119,2.0,3.0,81,0.00,,---,0.00,VWS V14.01,2013-08-23 01:33:00,
2013-08-22 20:38:00,82.9,76.5,29.91,ESE,119,1.0,4.0,81,0.00,,---,0.00,VWS V14.01,2013-08-23 01:38:00,
2013-08-22 20:43:00,82.9,76.5,29.91,ESE,122,2.0,3.0,81,0.00,,---,0.00,VWS V14.01,2013-08-23 01:43:00,
2013-08-22 20:48:00,82.8,76.4,29.91,ESE,111,1.0,4.0,81,0.00,,---,0.00,VWS V14.01,2013-08-23 01:48:00,
2013-08-22 20:53:00,82.6,76.2,29.91,ESE,103,1.0,3.0,81,0.00,,---,0.00,VWS V14.01,2013-08-23 01:53:00,
2013-08-22 20:58:00,82.6,76.2,29.91,ESE,115,3.0,5.0,81,0.00,,---,0.00,VWS V14.01,2013-08-23 01:58:00,
2013-08-22 21:03:00,82.6,76.2,29.91,ESE,122,2.0,3.0,81,0.00,,---,0.00,VWS V14.01,2013-08-23 02:03:00,
2013-08-22 21:08:00,82.6,76.2,29.92,SSE,148,1.0,6.0,81,0.00,,---,0.00,VWS V14.01,2013-08-23 02:08:00,
2013-08-22 21:13:00,82.6,76.2,29.92,SE,133,2.0,5.0,81,0.00,,---,0.00,VWS V14.01,2013-08-23 02:13:00,
2013-08-22 21:18:00,82.6,76.2,29.92,SE,127,2.0,4.0,81,0.00,,---,0.00,VWS V14.01,2013-08-23 02:18:00,
2013-08-22 21:23:00,82.5,76.4,29.92,SE,129,3.0,5.0,82,0.00,,---,0.00,VWS V14.01,2013-08-23 02:23:00,
2013-08-22 21:28:00,82.4,76.4,29.92,ESE,117,1.0,4.0,82,0.00,,---,0.00,VWS V14.01,2013-08-23 02:28:00,
2013-08-22 21:33:00,82.3,76.3,29.92,ESE,115,1.0,3.0,82,0.00,,---,0.00,VWS V14.01,2013-08-23 02:33:00,
2013-08-22 21:38:00,82.3,76.3,29.92,SE,132,4.0,4.0,82,0.00,,---,0.00,VWS V14.01,2013-08-23 02:38:00,
2013-08-22 21:43:00,82.3,76.3,29.92,SE,124,3.0,3.0,82,0.00,,---,0.00,VWS V14.01,2013-08-23 02:43:00,
2013-08-22 21:48:00,82.2,76.2,29.92,ESE,122,2.0,4.0,82,0.00,,---,0.00,VWS V14.01,2013-08-23 02:48:00,
2013-08-22 21:53:00,82.2,76.2,29.93,ESE,118,4.0,4.0,82,0.00,,---,0.00,VWS V14.01,2013-08-23 02:53:00,
2013-08-22 21:58:00,82.2,76.2,29.93,ESE,121,3.0,3.0,82,0.00,,---,0.00,VWS V14.01,2013-08-23 02:58:00,
2013-08-22 22:02:00,82.1,76.1,29.93,SE,130,2.0,5.0,82,0.00,,---,0.00,VWS V14.01,2013-08-23 03:02:00,
2013-08-22 22:07:00,82.2,76.5,29.93,SE,131,6.0,6.0,83,0.00,,---,0.00,VWS V14.01,2013-08-23 03:07:00,
2013-08-22 22:12:00,82.2,76.5,29.93,SE,131,1.0,1.0,83,0.00,,---,0.00,VWS V14.01,2013-08-23 03:12:00,
2013-08-22 22:17:00,82.1,76.4,29.93,ESE,121,2.0,4.0,83,0.00,,---,0.00,VWS V14.01,2013-08-23 03:17:00,
2013-08-22 22:22:00,82.1,76.4,29.93,SE,125,3.0,4.0,83,0.00,,---,0.00,VWS V14.01,2013-08-23 03:22:00,
2013-08-22 22:27:00,82.1,76.4,29.93,SE,142,2.0,4.0,83,0.00,,---,0.00,VWS V14.01,2013-08-23 03:27:00,
2013-08-22 22:32:00,82.0,76.3,29.93,SE,142,1.0,3.0,83,0.00,,---,0.00,VWS V14.01,2013-08-23 03:32:00,
2013-08-22 22:37:00,82.0,76.3,29.93,SE,141,0.0,4.0,83,0.00,,---,0.00,VWS V14.01,2013-08-23 03:37:00,
2013-08-22 22:42:00,81.9,76.6,29.93,SE,141,2.0,4.0,84,0.00,,---,0.00,VWS V14.01,2013-08-23 03:42:00,
2013-08-22 22:47:00,81.9,76.6,29.94,SE,141,2.0,2.0,84,0.00,,---,0.00,VWS V14.01,2013-08-23 03:47:00,
2013-08-22 22:52:00,81.8,76.5,29.94,SE,141,1.0,2.0,84,0.00,,---,0.00,VWS V14.01,2013-08-23 03:52:00,
2013-08-22 22:57:00,81.8,76.5,29.94,SE,141,0.0,0.0,84,0.00,,---,0.00,VWS V14.01,2013-08-23 03:57:00,
2013-08-22 23:01:00,81.7,76.4,29.93,SE,141,0.0,0.0,84,0.00,,---,0.00,VWS V14.01,2013-08-23 04:01:00,
2013-08-22 23:06:00,81.6,76.3,29.93,SE,141,0.0,0.0,84,0.00,,---,0.00,VWS V14.01,2013-08-23 04:06:00,
2013-08-22 23:11:00,81.4,76.1,29.93,SE,141,0.0,0.0,84,0.00,,---,0.00,VWS V14.01,2013-08-23 04:11:00,
2013-08-22 23:16:00,81.2,75.9,29.93,SE,141,0.0,0.0,84,0.00,,---,0.00,VWS V14.01,2013-08-23 04:16:00,
2013-08-22 23:21:00,81.1,75.8,29.93,SE,141,0.0,0.0,84,0.00,,---,0.00,VWS V14.01,2013-08-23 04:21:00,
2013-08-22 23:26:00,80.9,76.0,29.93,SE,141,0.0,0.0,85,0.00,,---,0.00,VWS V14.01,2013-08-23 04:26:00,
2013-08-22 23:31:00,80.8,75.9,29.93,SE,141,0.0,0.0,85,0.00,,---,0.00,VWS V14.01,2013-08-23 04:31:00,
2013-08-22 23:36:00,80.8,75.9,29.93,SE,141,0.0,0.0,85,0.00,,---,0.00,VWS V14.01,2013-08-23 04:36:00,
2013-08-22 23:41:00,80.7,75.8,29.93,SE,141,0.0,0.0,85,0.00,,---,0.00,VWS V14.01,2013-08-23 04:41:00,
2013-08-22 23:46:00,80.7,75.8,29.93,SE,141,0.0,0.0,85,0.00,,---,0.00,VWS V14.01,2013-08-23 04:46:00,
2013-08-22 23:51:00,80.8,75.9,29.93,SE,141,0.0,0.0,85,0.00,,---,0.00,VWS V14.01,2013-08-23 04:51:00,
2013-08-22 23:56:00,80.8,75.9,29.93,SE,141,0.0,0.0,85,0.00,,---,0.00,VWS V14.01,2013-08-23 04:56:00,